Location: Fort Worth, Tx
(32.7431°N, 97.3695°W)
Time: 09:07:53
(UTC-04:00)

A-11 Canister half - Pass Details

Date: 17 August 2024
Orbit: 1524 x 1684 km, 47.3° (Epoch: 13 September)

Event Time Altitude Azimuth Distance (km) Brightness Sun altitude
Rises 22:54:11 0° 226° (SW) 4,826 11.8 -20.6°
Reaches altitude 10° 22:57:15 10° 226° (SW) 3,861 11.2 -21.1°
Maximum altitude 23:07:12 83° 140° (SE) 1,679 9.0 -22.9°
Drops below altitude 10° 23:17:24 10° 54° (NE) 3,949 11.0 -24.6°
Sets 23:20:34 0° 54° (NE) 4,940 11.5 -25.2°
